Location: Pasadena, ca
(34.1243°N, 118.1037°W)
Time: 11:57:28
(UTC-08:00)

Vanguard 3 - All Passes

Search period start: 15 December 2017 00:00
Search period end: 25 December 2017 00:00
Orbit: 509 x 3263 km, 33.3° (Epoch: 14 December)

Date Brightness Start Highest point End Pass type
(mag) Time Alt. Az. Time Alt. Az. Time Alt. Az.
15 Dec - 08:15:36 10° S 08:18:41 12° SSE 08:21:17 10° SE daylight
15 Dec - 10:25:12 10° SW 10:31:09 33° SSE 10:35:10 10° E daylight
15 Dec - 12:38:05 10° WSW 12:42:37 74° S 12:46:15 10° E daylight
15 Dec - 14:50:11 10° W 14:53:49 62° S 14:57:59 10° ESE daylight
15 Dec - 17:01:49 10° WSW 17:05:11 22° SSW 17:09:42 10° SSE visible
16 Dec - 09:10:49 10° SSW 09:17:23 24° SSE 09:21:49 10° ESE daylight
16 Dec - 11:23:35 10° WSW 11:29:18 57° SSE 11:33:13 10° E daylight
16 Dec - 13:36:36 10° W 13:40:37 79° S 13:44:20 10° E daylight
16 Dec - 15:48:22 10° W 15:51:46 33° SSW 15:56:02 10° SE daylight
17 Dec - 07:56:52 10° SSW 08:03:12 18° SSE 08:07:49 10° ESE daylight
17 Dec - 10:08:41 10° SW 10:15:47 43° SSE 10:20:15 10° E daylight
17 Dec - 12:22:23 10° W 12:27:22 80° S 12:31:06 10° E daylight
17 Dec - 14:34:56 10° W 14:38:34 52° SSW 14:42:25 10° ESE daylight
17 Dec - 16:47:20 10° WSW 16:49:51 16° SSW 16:52:53 10° SSE daylight
18 Dec - 06:44:26 10° S 06:48:35 12° SSE 06:52:06 10° SE daylight
18 Dec - 08:53:40 10° SW 09:01:56 32° SSE 09:07:07 10° E daylight
18 Dec - 11:07:31 10° WSW 11:14:00 67° S 11:18:09 10° E daylight
18 Dec - 13:21:06 10° W 13:25:23 75° S 13:29:03 10° ESE daylight
18 Dec - 15:33:22 10° W 15:36:28 25° SSW 15:40:01 10° SE daylight
19 Dec - 07:38:53 10° SSW 07:47:38 25° SSE 07:53:29 10° ESE daylight
19 Dec - 09:52:08 10° WSW 10:00:23 53° SSE 10:05:17 10° E daylight
19 Dec - 12:06:36 10° W 12:12:07 83° S 12:15:58 10° E daylight
19 Dec - 14:19:36 10° W 14:23:18 43° SSW 14:26:54 10° SE daylight
19 Dec - 16:33:59 10° SSW 16:34:29 10° SSW 16:34:59 10° SSW daylight
20 Dec - 06:24:57 10° S 06:32:54 18° SSE 06:38:50 10° ESE visible
20 Dec - 08:36:33 10° SW 08:46:25 41° SSE 08:52:14 10° E daylight
20 Dec - 10:51:22 10° WSW 10:58:39 75° S 11:03:05 10° E daylight
20 Dec - 13:05:30 10° W 13:10:10 69° S 13:13:49 10° ESE daylight
20 Dec - 15:18:27 10° WSW 15:21:07 19° SSW 15:23:57 10° SSE daylight
21 Dec - 05:13:42 10° SSE 05:17:44 11° SSE 05:21:19 10° SE visible
21 Dec - 07:21:08 10° SSW 07:31:59 32° SSE 07:38:48 10° E daylight
21 Dec - 09:35:33 10° WSW 09:44:56 62° SSE 09:50:15 10° E daylight
21 Dec - 11:50:43 10° W 11:56:50 83° S 12:00:51 10° E daylight
21 Dec - 14:04:14 10° W 14:08:00 35° SSW 14:11:24 10° SE daylight
22 Dec - 06:06:23 10° SSW 06:17:07 24° SSE 06:24:34 10° ESE visible
22 Dec - 08:19:27 10° SW 08:30:49 50° SSE 08:37:15 10° E daylight
22 Dec - 10:35:08 10° W 10:43:16 81° S 10:48:01 10° E daylight
22 Dec - 12:49:48 10° W 12:54:52 62° SSW 12:58:36 10° ESE daylight
22 Dec - 15:03:40 10° WSW 15:05:43 14° SSW 15:07:44 10° S daylight
23 Dec - 04:53:10 10° S 05:01:49 16° SSE 05:08:42 10° ESE visible
23 Dec - 07:03:30 10° SW 07:16:14 39° SSE 07:23:53 10° E daylight
23 Dec - 09:18:54 10° WSW 09:29:23 71° SSE 09:35:11 10° E daylight
23 Dec - 11:34:42 10° W 11:41:31 81° S 11:45:46 10° E daylight
23 Dec - 13:48:47 10° W 13:52:38 29° SSW 13:55:54 10° SE daylight
24 Dec - 05:48:10 10° SSW 06:01:11 30° SSE 06:09:52 10° E visible
24 Dec - 08:02:22 10° WSW 08:15:07 58° SSE 08:22:11 10° E daylight
24 Dec - 10:18:47 10° W 10:27:50 84° S 10:32:58 10° E daylight
24 Dec - 12:33:59 10° W 12:39:33 55° SSW 12:43:23 10° ESE daylight
24 Dec - 14:49:31 10° SW 14:50:12 10° SSW 14:50:53 10° SSW daylight
